FW0798 Weather Reports


Display with metric or nautical units.
time (UTC)temp
F
wind
direction
speed
MPH
gust
MPH
rain 1hr
in
rain 24hr
in
rain mn
in
humidity
%
barometer
mb
20260505153234 64 93 4.0 12.0 0.00 0.00 0.05 94 1004.4
20260505152733 63 86 3.0 12.0 0.00 0.00 0.05 94 1004.7
20260505152234 63 71 6.0 12.0 0.00 0.00 0.05 94 1004.9
20260505151732 63 67 8.0 10.0 0.00 0.00 0.05 94 1004.9
20260505151232 63 96 7.0 11.0 0.00 0.00 0.05 94 1005.0
20260505150735 63 84 4.0 12.0 0.00 0.00 0.05 94 1004.9
20260505150232 63 61 5.0 12.0 0.00 0.00 0.05 94 1004.9
20260505140232 62 75 8.0 12.0 0.00 0.00 0.05 94 1005.5
20260505130229 62 86 5.0 14.0 0.00 0.00 0.05 93 1005.2
20260505124728 62 116 12.0 13.0 0.00 0.00 0.05 92 1005.1
20260505124229 62 86 8.0 12.0 0.00 0.00 0.05 92 1005.1
20260505123730 62 77 8.0 12.0 0.00 0.00 0.04 92 1005.2
20260505123230 62 78 8.0 12.0 0.00 0.00 0.04 92 1005.1
20260505122729 62 91 8.0 12.0 0.00 0.00 0.04 91 1005.1
20260505122228 62 71 6.0 12.0 0.00 0.00 0.04 91 1005.0
20260505121730 62 100 6.0 11.0 0.00 0.00 0.04 91 1004.9
20260505121228 62 88 5.0 11.0 0.00 0.00 0.03 90 1004.9
20260505120727 63 67 11.0 10.0 0.00 0.00 0.03 90 1004.7
20260505120226 63 73 8.0 12.0 0.00 0.00 0.03 89 1004.5
20260505115730 63 71 4.0 13.0 0.00 0.00 0.03 89 1004.5
20260505115227 63 82 4.0 13.0 0.00 0.00 0.03 88 1004.5
20260505114727 63 69 6.0 11.0 0.00 0.00 0.03 88 1004.4
20260505114228 63 76 5.0 11.0 0.00 0.00 0.03 88 1004.4
20260505113728 63 59 11.0 11.0 0.00 0.00 0.03 88 1004.3
20260505113226 63 59 5.0 10.0 0.00 0.00 0.03 87 1004.2
20260505112726 63 85 8.0 10.0 0.00 0.00 0.03 87 1004.2
20260505112226 63 63 8.0 10.0 0.00 0.00 0.03 87 1004.1
20260505111728 63 74 5.0 11.0 0.00 0.00 0.03 87 1004.1
20260505111226 63 63 6.0 11.0 0.00 0.00 0.03 87 1004.0
20260505110726 63 49 5.0 12.0 0.00 0.00 0.03 87 1004.0
20260505110225 63 80 4.0 12.0 0.00 0.00 0.03 87 1004.0
20260505101726 63 63 8.0 12.0 0.00 0.00 0.03 85 1003.7
20260505101224 63 68 6.0 10.0 0.00 0.00 0.03 85 1003.7
20260505100727 63 90 7.0 10.0 0.00 0.00 0.03 85 1003.8
20260505100226 63 73 4.0 10.0 0.00 0.00 0.03 85 1003.8
20260505095726 63 64 4.0 10.0 0.00 0.00 0.03 85 1003.9
20260505095223 63 65 6.0 11.0 0.00 0.00 0.03 85 1003.9
20260505094724 63 52 6.0 11.0 0.00 0.00 0.03 86 1003.9
20260505094226 62 82 5.0 11.0 0.00 0.00 0.03 87 1004.1
20260505093724 62 53 6.0 11.0 0.00 0.00 0.03 87 1004.0
20260505093223 62 67 10.0 11.0 0.00 0.00 0.03 87 1004.1
20260505092724 62 43 6.0 11.0 0.00 0.00 0.03 88 1004.1
20260505092223 62 49 9.0 11.0 0.00 0.00 0.03 89 1004.2
20260505091726 62 9 7.0 11.0 0.00 0.00 0.03 89 1004.4
20260505091223 62 13 4.0 9.0 0.00 0.00 0.03 89 1004.2
20260505090724 61 24 6.0 9.0 0.00 0.00 0.03 89 1004.0
20260505090224 62 24 5.0 8.0 0.00 0.00 0.03 88 1003.8
20260505085722 62 42 3.0 9.0 0.00 0.00 0.03 88 1003.7
20260505085222 62 55 5.0 9.0 0.00 0.00 0.03 88 1003.5
20260505084721 62 39 5.0 8.0 0.00 0.00 0.03 87 1003.4
20260505084222 62 46 4.0 8.0 0.00 0.00 0.03 87 1003.4
20260505083722 62 74 4.0 8.0 0.00 0.00 0.03 86 1003.3
20260505083223 62 69 3.0 8.0 0.00 0.00 0.03 86 1003.3
20260505082722 62 87 4.0 6.0 0.00 0.00 0.03 86 1002.7
20260505082222 62 84 1.0 8.0 0.00 0.00 0.03 86 1002.8
20260505081722 63 80 3.0 8.0 0.00 0.00 0.03 85 1002.7
20260505081223 63 87 5.0 10.0 0.00 0.00 0.03 84 1002.7
20260505080723 63 74 4.0 10.0 0.00 0.00 0.03 84 1002.7
20260505080223 63 69 8.0 10.0 0.00 0.00 0.03 83 1002.8
20260505075723 63 78 5.0 10.0 0.00 0.00 0.03 83 1003.0
20260505075221 63 80 8.0 10.0 0.00 0.00 0.02 82 1003.1
20260505074719 63 66 5.0 10.0 0.00 0.00 0.02 82 1003.1
20260505074221 63 91 7.0 9.0 0.00 0.00 0.02 82 1003.4
20260505073720 63 75 5.0 9.0 0.00 0.00 0.02 82 1003.6
20260505073221 63 65 6.0 9.0 0.00 0.00 0.02 82 1003.5
20260505072722 63 121 5.0 9.0 0.00 0.00 0.02 83 1003.8
20260505072222 63 74 8.0 9.0 0.00 0.00 0.02 83 1003.9
20260505071721 63 61 6.0 9.0 0.00 0.00 0.02 83 1004.3
20260505071222 63 55 6.0 7.0 0.00 0.00 0.02 84 1004.5
20260505070722 63 74 3.0 9.0 0.00 0.00 0.02 84 1004.2
20260505070220 63 109 3.0 9.0 0.00 0.00 0.02 84 1004.0
20260505065721 63 76 3.0 9.0 0.00 0.00 0.02 84 1004.2
20260505065221 63 56 5.0 9.0 0.00 0.00 0.02 84 1004.4
20260505064720 63 72 3.0 6.0 0.00 0.00 0.02 84 1004.5
20260505064219 63 100 4.0 4.0 0.00 0.00 0.02 83 1004.6
20260505063719 63 0 0.0 5.0 0.00 0.00 0.02 82 1004.9
20260505063221 64 77 3.0 5.0 0.00 0.00 0.02 81 1004.7
20260505062720 64 59 5.0 5.0 0.00 0.00 0.00 79 1005.0
20260505062223 64 352 3.0 7.0 0.00 0.00 0.00 77 1005.5
20260505061721 64 53 3.0 9.0 0.00 0.00 0.00 78 1005.1
20260505061219 64 88 4.0 11.0 0.00 0.00 0.00 77 1004.9
20260505060719 64 94 6.0 11.0 0.00 0.00 0.00 77 1004.7
20260505060218 64 118 8.0 14.0 0.00 0.00 0.00 77 1004.6
20260505055719 65 118 7.0 14.0 0.00 0.00 0.00 77 1004.6
20260505055218 65 118 7.0 14.0 0.00 0.00 0.00 77 1004.5
20260505054717 65 119 9.0 11.0 0.00 0.00 0.00 76 1004.9
20260505054217 65 124 4.0 8.0 0.00 0.00 0.00 76 1005.4
20260505053718 65 134 3.0 5.0 0.00 0.00 0.00 76 1006.0
20260505053217 65 77 2.0 4.0 0.00 0.00 0.00 75 1006.3
20260505052718 65 93 1.0 4.0 0.00 0.00 0.00 76 1006.3
20260505052217 65 100 3.0 4.0 0.00 0.00 0.00 76 1006.4
20260505051719 65 28 2.0 4.0 0.00 0.00 0.00 75 1006.7
20260505051219 65 32 2.0 5.0 0.00 0.00 0.00 75 1006.5
20260505050719 65 56 4.0 5.0 0.00 0.00 0.00 75 1006.1
20260505050217 65 68 3.0 5.0 0.00 0.00 0.00 75 1005.7
20260505041718 66 97 1.0 3.0 0.00 0.00 0.00 74 1006.1
20260505041315 66 0 0.0 4.0 0.00 0.00 0.00 73 1006.2
20260505040917 66 104 1.0 4.0 0.00 0.00 0.00 73 1006.1
20260505040417 66 103 1.0 4.0 0.00 0.00 0.00 73 1006.2
20260505035918 66 111 2.0 4.0 0.00 0.00 0.00 72 1006.1
20260505035418 66 101 3.0 3.0 0.00 0.00 0.00 72 1006.3
20260505034916 66 111 2.0 3.0 0.00 0.00 0.00 71 1006.3
20260505034418 67 119 1.0 2.0 0.00 0.00 0.00 71 1006.4
20260505033916 67 119 1.0 2.0 0.00 0.00 0.00 71 1006.4
20260505033418 67 120 1.0 3.0 0.00 0.00 0.00 70 1006.4
20260505032915 67 0 0.0 3.0 0.00 0.00 0.00 70 1006.5
20260505032419 67 131 2.0 4.0 0.00 0.00 0.00 70 1006.5
20260505031917 67 128 2.0 5.0 0.00 0.00 0.00 70 1006.4
20260505031416 68 130 2.0 5.0 0.00 0.00 0.00 70 1006.4
20260505030915 68 131 3.0 6.0 0.00 0.00 0.00 69 1006.5
20260505030415 68 126 2.0 6.0 0.00 0.00 0.00 69 1006.5
20260505025937 68 147 4.0 5.0 0.00 0.00 0.00 69 1006.5
20260505025439 68 140 3.0 5.0 0.00 0.00 0.00 69 1006.5
20260505024940 68 140 3.0 4.0 0.00 0.00 0.00 69 1006.6
20260505024415 68 145 2.0 5.0 0.00 0.00 0.00 69 1006.6
20260505023940 68 0 0.0 5.0 0.00 0.00 0.00 69 1006.5
20260505023436 68 132 3.0 5.0 0.00 0.00 0.00 68 1006.5
20260505022915 68 150 2.0 5.0 0.00 0.00 0.00 68 1006.5
20260505022415 69 148 2.0 5.0 0.00 0.00 0.00 68 1006.3
20260505021937 69 157 3.0 5.0 0.00 0.00 0.00 68 1006.2
20260505021438 69 177 2.0 5.0 0.00 0.00 0.00 68 1006.1
20260505020942 69 169 1.0 5.0 0.00 0.00 0.00 68 1006.1
20260505020437 69 145 2.0 4.0 0.00 0.00 0.00 68 1006.0
20260505015939 69 142 1.0 5.0 0.00 0.00 0.00 68 1006.0
20260505015442 69 158 1.0 5.0 0.00 0.00 0.00 67 1006.0
20260505014939 70 142 2.0 5.0 0.00 0.00 0.00 67 1005.8
20260505014439 70 135 1.0 5.0 0.00 0.00 0.00 67 1005.7
20260505013938 70 155 3.0 4.0 0.00 0.00 0.00 67 1005.6
20260505013436 70 163 2.0 4.0 0.00 0.00 0.00 66 1005.7
20260505012944 70 159 2.0 4.0 0.00 0.00 0.00 66 1005.5
20260505012444 71 123 1.0 5.0 0.00 0.00 0.00 65 1005.5
20260505011944 71 149 3.0 7.0 0.00 0.00 0.00 65 1005.4
20260505011439 71 132 3.0 8.0 0.00 0.00 0.00 64 1005.4
20260505010941 71 138 3.0 9.0 0.00 0.00 0.00 64 1005.5
20260505010443 71 142 4.0 11.0 0.00 0.00 0.00 63 1005.1
20260505005941 71 159 6.0 11.0 0.00 0.00 0.00 63 1005.2
20260505005437 72 152 3.0 7.0 0.00 0.00 0.00 63 1005.1
20260505004938 72 163 2.0 7.0 0.00 0.00 0.00 62 1005.2
20260505004439 72 136 2.0 8.0 0.00 0.00 0.00 62 1005.2
20260505003941 72 144 4.0 8.0 0.00 0.00 0.00 62 1005.1
20260505003439 73 158 3.0 9.0 0.00 0.00 0.00 61 1005.2
20260505002943 73 152 7.0 11.0 0.00 0.00 0.00 61 1005.3
20260505002441 73 140 4.0 11.0 0.00 0.00 0.00 61 1005.3
20260505001937 73 172 7.0 10.0 0.00 0.00 0.00 60 1005.4
20260505001442 73 144 6.0 11.0 0.00 0.00 0.00 59 1005.4
20260505000944 73 175 3.0 12.0 0.00 0.00 0.00 60 1005.4
20260505000439 74 163 7.0 12.0 0.00 0.00 0.00 59 1005.4
20260504235939 74 161 5.0 13.0 0.00 0.00 0.00 59 1005.5
20260504235442 74 170 7.0 13.0 0.00 0.00 0.00 59 1005.4
20260504234943 74 132 8.0 12.0 0.00 0.00 0.00 59 1005.4
20260504234441 74 146 8.0 14.0 0.00 0.00 0.00 59 1005.4
20260504233940 74 150 9.0 19.0 0.00 0.00 0.00 58 1005.5
20260504233438 74 156 7.0 19.0 0.00 0.00 0.00 58 1005.6
20260504232936 75 184 17.0 12.0 0.00 0.00 0.00 58 1005.5
20260504232442 75 150 5.0 12.0 0.00 0.00 0.00 59 1005.5
20260504231940 75 160 6.0 11.0 0.00 0.00 0.00 58 1005.6
20260504231445 75 145 3.0 10.0 0.00 0.00 0.00 57 1005.5
20260504230942 75 142 4.0 10.0 0.00 0.00 0.00 58 1005.5
20260504230437 75 126 3.0 11.0 0.00 0.00 0.00 57 1005.5
20260504230015 75 138 7.0 11.0 0.00 0.00 0.00 56 1005.4
20260504225541 76 134 8.0 11.0 0.00 0.00 0.00 56 1005.4
20260504225040 76 142 5.0 12.0 0.00 0.00 0.00 56 1005.6
20260504224540 76 167 5.0 15.0 0.00 0.00 0.00 55 1005.6
20260504224044 76 177 10.0 16.0 0.00 0.00 0.00 55 1005.5
20260504223541 76 159 6.0 16.0 0.00 0.00 0.00 53 1005.6
20260504223037 76 174 8.0 13.0 0.00 0.00 0.00 53 1005.7
20260504222537 77 156 7.0 13.0 0.00 0.00 0.00 53 1005.7
20260504222040 77 179 6.0 13.0 0.00 0.00 0.00 54 1005.7
20260504221539 77 204 7.0 15.0 0.00 0.00 0.00 52 1005.7
20260504221037 77 174 10.0 15.0 0.00 0.00 0.00 54 1005.8
20260504220542 77 186 8.0 14.0 0.00 0.00 0.00 53 1005.9
20260504220043 77 138 7.0 14.0 0.00 0.00 0.00 52 1006.0
20260504215536 77 177 11.0 14.0 0.00 0.00 0.00 53 1006.0
20260504215039 78 195 6.0 14.0 0.00 0.00 0.00 53 1005.8
20260504214538 78 156 11.0 17.0 0.00 0.00 0.00 54 1005.8
20260504214039 78 148 8.0 17.0 0.00 0.00 0.00 51 1005.9
20260504213541 78 145 9.0 17.0 0.00 0.00 0.00 53 1006.2
20260504213142 78 180 10.0 12.0 0.00 0.00 0.00 51 1006.2
20260504212642 78 205 6.0 15.0 0.00 0.00 0.00 51 1006.2
20260504212129 78 171 8.0 16.0 0.00 0.00 0.00 51 1006.3
20260504211641 79 200 7.0 16.0 0.00 0.00 0.00 50 1006.4
20260504211138 79 183 12.0 16.0 0.00 0.00 0.00 49 1006.6
20260504210640 79 186 8.0 16.0 0.00 0.00 0.00 49 1006.6
20260504210141 79 209 7.0 15.0 0.00 0.00 0.00 54 1006.7
20260504205638 80 230 11.0 14.0 0.00 0.00 0.00 49 1006.7
20260504205142 79 189 2.0 16.0 0.00 0.00 0.00 52 1006.7
20260504204644 79 163 7.0 16.0 0.00 0.00 0.00 50 1006.9
20260504204140 79 184 8.0 14.0 0.00 0.00 0.00 52 1007.0
20260504203640 79 167 9.0 15.0 0.00 0.00 0.00 50 1007.0
20260504203138 79 205 12.0 16.0 0.00 0.00 0.00 49 1007.1
20260504202644 79 182 11.0 17.0 0.00 0.00 0.00 49 1007.3
20260504202138 79 187 10.0 17.0 0.00 0.00 0.00 51 1007.3
20260504201640 79 198 8.0 16.0 0.00 0.00 0.00 49 1007.3
20260504201138 79 238 11.0 17.0 0.00 0.00 0.00 49 1007.6
20260504200642 79 196 6.0 17.0 0.00 0.00 0.00 50 1007.6
20260504200137 79 184 3.0 15.0 0.00 0.00 0.00 48 1007.6
20260504195636 79 212 14.0 15.0 0.00 0.00 0.00 49 1007.8
20260504195138 79 200 10.0 20.0 0.00 0.00 0.00 49 1008.0
20260504194643 79 225 8.0 20.0 0.00 0.00 0.00 48 1008.0
20260504194138 78 225 11.0 21.0 0.00 0.00 0.00 52 1008.0
20260504193641 78 215 15.0 21.0 0.00 0.00 0.00 50 1008.1
20260504193136 78 189 7.0 17.0 0.00 0.00 0.00 49 1008.2
20260504192641 78 200 8.0 17.0 0.00 0.00 0.00 50 1008.2
20260504192140 78 201 11.0 19.0 0.00 0.00 0.00 48 1008.4
20260504191639 78 182 11.0 22.0 0.00 0.00 0.00 50 1008.5
20260504191141 78 209 16.0 22.0 0.00 0.00 0.00 50 1008.5
20260504190644 78 205 13.0 19.0 0.00 0.00 0.00 49 1008.5
20260504190139 78 229 12.0 18.0 0.00 0.00 0.00 49 1008.7
20260504185641 78 200 10.0 18.0 0.00 0.00 0.00 50 1008.6
20260504185142 78 206 7.0 18.0 0.00 0.00 0.00 50 1008.8
20260504184636 77 233 7.0 19.0 0.00 0.00 0.00 53 1008.8
20260504184138 77 244 12.0 19.0 0.00 0.00 0.00 50 1008.8
20260504183639 77 255 11.0 18.0 0.00 0.00 0.00 49 1008.8
20260504183139 77 233 8.0 18.0 0.00 0.00 0.00 50 1009.1
20260504182637 76 201 4.0 19.0 0.00 0.00 0.00 51 1009.0
20260504182138 76 215 11.0 19.0 0.00 0.00 0.00 51 1009.1
20260504181643 76 193 10.0 20.0 0.00 0.00 0.00 49 1009.3
20260504181139 76 163 13.0 20.0 0.00 0.00 0.00 49 1009.4
20260504180638 76 204 14.0 21.0 0.00 0.00 0.00 50 1009.4
20260504180140 76 185 12.0 21.0 0.00 0.00 0.00 50 1009.6
20260504175639 76 185 12.0 17.0 0.00 0.00 0.00 49 1009.6
20260504175142 76 201 8.0 18.0 0.00 0.00 0.00 50 1009.6
20260504174640 76 196 8.0 18.0 0.00 0.00 0.00 49 1009.6
20260504174141 76 240 10.0 18.0 0.00 0.00 0.00 51 1009.7
20260504173639 76 196 11.0 18.0 0.00 0.00 0.00 50 1009.8
20260504173136 76 182 10.0 19.0 0.00 0.00 0.00 52 1009.8
20260504172627 76 219 11.0 24.0 0.00 0.00 0.00 52 1009.9
20260504172129 76 183 10.0 24.0 0.00 0.00 0.00 50 1009.9
20260504171631 76 143 6.0 19.0 0.00 0.00 0.00 54 1010.0
20260504171126 75 240 12.0 19.0 0.00 0.00 0.00 52 1009.9
20260504170625 75 181 6.0 21.0 0.00 0.00 0.00 53 1010.1
20260504170130 75 228 13.0 21.0 0.00 0.00 0.00 52 1010.1
20260504160126 73 236 13.0 18.0 0.00 0.00 0.00 55 1010.4